This is the latest recevied weather packets stored in our database for station/object VE6EN. If no packets are shown the sender has not sent any weather packets the latest 10 day(s).
| Time | Temp. | Humidity | Pressure | Rain* | Wind** | Luminosity | Snow |
|---|---|---|---|---|---|---|---|
| 1787635202 | 14.44° C | 68% | 1022.5 hPa | 0 mm | - | - | - |
| 1787634602 | 14.44° C | 68% | 1022.5 hPa | 0 mm | - | - | - |
| 1787634003 | 15° C | 68% | 1022.6 hPa | 0 mm | - | - | - |
| 1787633404 | 15° C | 66% | 1022.4 hPa | 0 mm | - | - | - |
| 1787632805 | 15° C | 65% | 1022.5 hPa | 0 mm | - | - | - |
| 1787632203 | 15.56° C | 63% | 1022.5 hPa | 0 mm | - | - | - |
| 1787631603 | 15.56° C | 63% | 1022.4 hPa | 0 mm | - | - | - |
| 1787631003 | 16.11° C | 61% | 1022.3 hPa | 0 mm | - | - | - |
| 1787630403 | 16.11° C | 61% | 1022.3 hPa | 0 mm | - | - | - |
| 1787629802 | 16.11° C | 60% | 1022.1 hPa | 0 mm | - | - | - |
| 1787629203 | 16.11° C | 60% | 1022.1 hPa | 0 mm | - | - | - |
| 1787628603 | 16.67° C | 60% | 1022 hPa | 0 mm | - | - | - |
| 1787627402 | 17.22° C | 57% | 1021.8 hPa | 0 mm | - | - | - |
| 1787626806 | 17.78° C | 55% | 1021.7 hPa | 0 mm | - | - | - |
| 1787626203 | 17.78° C | 54% | 1021.7 hPa | 0 mm | - | - | - |
| 1787625603 | 18.33° C | 53% | 1021.5 hPa | 0 mm | - | - | - |
| 1787625007 | 18.33° C | 53% | 1021.5 hPa | 0 mm | - | - | - |
| 1787624404 | 18.89° C | 51% | 1021.3 hPa | 0 mm | - | - | - |
| 1787623803 | 18.89° C | 50% | 1021.2 hPa | 0 mm | - | - | - |
| 1787623203 | 19.44° C | 49% | 1021.1 hPa | 0 mm | - | - | - |
| 1787622606 | 19.44° C | 48% | 1021.1 hPa | 0 mm | - | - | - |
| 1787622002 | 20° C | 48% | 1021.1 hPa | 0 mm | - | - | - |
| 1787621708 | 20° C | 47% | 1021.1 hPa | 0 mm | - | - | - |
| 1787620203 | 20.56° C | 46% | 1021.1 hPa | 0 mm | - | - | - |
| 1787619733 | 21.11° C | 45% | 1021 hPa | 0 mm | - | - | - |
* Rain latest hour (hover to see other rain measurements)
** Current wind speed in m/s (hover to see current wind gust speed)